TRACERS 1

Last updated on Fri Aug 22 2025 00:02:05 GMT+0000 (Coordinated Universal Time)

1 64870U 25154B 25232.89804300 .00001027 00000+0 10626-3 0 9995 2 64870 97.7119 298.3989 0005948 162.8339 197.3082 14.92176899 4197

Satellite not in orbit

TRACERS 1